EW2821 Weather Reports


Display with metric or nautical units.
time (UTC)temp
F
wind
direction
speed
MPH
gust
MPH
rain 1hr
in
rain 24hr
in
rain mn
in
humidity
%
barometer
mb
20260902030051 73 190 0.0 0.0 0.00 0.00 0.00 94 1017.5
20260902024551 74 190 0.0 0.0 0.00 0.00 0.00 93 1017.6
20260902023050 74 190 0.0 0.0 0.00 0.00 0.00 92 1017.5
20260902021552 75 190 0.0 0.0 0.00 0.00 0.00 92 1017.5
20260902020055 76 190 0.0 0.0 0.00 0.00 0.00 90 1017.4
20260902014549 77 190 0.0 0.0 0.00 0.00 0.00 89 1017.2
20260902013049 78 190 0.0 0.0 0.00 0.00 0.00 88 1017.2
20260902011548 78 190 0.0 1.0 0.00 0.00 0.00 88 1017.0
20260902010047 78 190 0.0 2.0 0.00 0.00 0.00 87 1016.8
20260902004547 79 190 0.0 0.0 0.00 0.00 0.00 86 1016.8
20260902003047 81 190 0.0 2.0 0.00 0.00 0.00 85 1016.8
20260902001546 82 190 1.0 3.0 0.00 0.00 0.00 81 1016.8
20260902000052 84 194 1.0 3.0 0.00 0.00 0.00 79 1016.9
20260901234547 85 195 1.0 4.0 0.00 0.00 0.00 77 1016.9
20260901233047 87 185 2.0 6.0 0.00 0.00 0.00 73 1017.0
20260901231545 88 185 4.0 6.0 0.00 0.00 0.00 71 1017.0
20260901230051 89 215 4.0 7.0 0.00 0.00 0.00 66 1017.0
20260901224543 89 188 3.0 8.0 0.00 0.00 0.00 67 1017.0
20260901223102 90 212 4.0 9.0 0.00 0.00 0.00 65 1017.0
20260901221544 90 221 5.0 10.0 0.00 0.00 0.00 64 1016.9
20260901220049 91 189 7.0 13.0 0.00 0.00 0.00 63 1016.9
20260901214541 91 216 2.0 10.0 0.00 0.00 0.00 63 1016.9
20260901213041 91 199 6.0 10.0 0.00 0.00 0.00 61 1017.0
20260901211540 92 214 7.0 10.0 0.00 0.00 0.00 59 1017.0
20260901210046 92 212 3.0 15.0 0.00 0.00 0.00 60 1017.1
20260901204542 92 201 4.0 13.0 0.00 0.00 0.00 58 1017.1
20260901203051 92 214 6.0 10.0 0.00 0.00 0.00 59 1017.1
20260901201536 92 265 5.0 10.0 0.00 0.00 0.00 58 1017.0
20260901200046 92 204 6.0 13.0 0.00 0.00 0.00 61 1017.2
20260901194539 92 211 7.0 15.0 0.00 0.00 0.00 59 1017.2
20260901193032 91 230 7.0 12.0 0.00 0.00 0.00 59 1017.3
20260901191531 91 184 5.0 13.0 0.00 0.00 0.00 61 1017.4
20260901190043 91 221 5.0 11.0 0.00 0.00 0.00 61 1017.4
20260901184527 91 269 6.0 14.0 0.00 0.00 0.00 62 1017.5
20260901183030 91 227 6.0 12.0 0.00 0.00 0.00 63 1017.6
20260901181524 90 222 6.0 12.0 0.00 0.00 0.00 63 1017.7
20260901180022 90 217 5.0 14.0 0.00 0.00 0.00 64 1017.8
20260901174528 90 221 6.0 12.0 0.00 0.00 0.00 66 1017.8
20260901173017 89 233 4.0 11.0 0.00 0.00 0.00 65 1017.8
20260901171521 89 272 5.0 10.0 0.00 0.00 0.00 64 1018.0
20260901170012 88 262 3.0 11.0 0.00 0.00 0.00 69 1018.1
20260901164508 88 208 4.0 10.0 0.00 0.00 0.00 70 1018.3
20260901163005 87 216 5.0 15.0 0.00 0.00 0.00 68 1018.3
20260901161504 87 230 5.0 10.0 0.00 0.00 0.00 70 1018.4
20260901160058 86 205 6.0 15.0 0.00 0.00 0.00 70 1018.4
20260901154555 86 226 7.0 12.0 0.00 0.00 0.00 71 1018.5
20260901153051 86 237 4.0 10.0 0.00 0.00 0.00 71 1018.4
20260901151547 85 224 5.0 10.0 0.00 0.00 0.00 73 1018.5
20260901150044 84 226 4.0 9.0 0.00 0.00 0.00 76 1018.6
20260901144538 83 220 6.0 12.0 0.00 0.00 0.00 76 1018.7
20260901143038 82 172 4.0 12.0 0.00 0.00 0.00 79 1018.7
20260901141530 81 245 2.0 11.0 0.00 0.00 0.00 80 1018.7
20260901140027 80 232 4.0 9.0 0.00 0.00 0.00 82 1018.8
20260901134522 78 239 2.0 9.0 0.00 0.00 0.00 84 1018.9
20260901133026 77 224 1.0 6.0 0.00 0.00 0.00 87 1018.9
20260901131514 76 218 1.0 9.0 0.00 0.00 0.00 89 1019.0
20260901130011 74 195 4.0 8.0 0.00 0.00 0.00 91 1019.1
20260901124506 73 216 2.0 5.0 0.00 0.00 0.00 94 1019.1
20260901123002 72 188 1.0 3.0 0.00 0.00 0.00 95 1019.0
20260901121559 71 188 1.0 3.0 0.00 0.00 0.00 95 1018.8
20260901120119 71 188 0.0 2.0 0.00 0.00 0.00 95 1018.7
20260901114555 70 188 1.0 3.0 0.00 0.00 0.00 95 1018.5
20260901113057 70 188 0.0 2.0 0.00 0.00 0.00 95 1018.5
20260901111547 70 188 0.0 2.0 0.00 0.00 0.00 95 1018.3
20260901110050 70 188 1.0 3.0 0.00 0.00 0.00 95 1018.1
20260901104550 70 189 1.0 3.0 0.00 0.00 0.00 95 1017.9
20260901103042 69 189 0.0 1.0 0.00 0.00 0.00 94 1017.8
20260901101549 70 189 1.0 2.0 0.00 0.00 0.00 93 1017.8
20260901100038 71 189 1.0 3.0 0.00 0.00 0.00 93 1017.7
20260901094540 71 189 1.0 3.0 0.00 0.00 0.00 94 1017.6
20260901093045 71 206 0.0 3.0 0.00 0.00 0.00 93 1017.5
20260901091543 71 214 1.0 2.0 0.00 0.00 0.00 92 1017.5
20260901090033 71 214 0.0 2.0 0.00 0.00 0.00 91 1017.5
20260901084531 72 214 1.0 2.0 0.00 0.00 0.00 90 1017.4
20260901083028 73 214 0.0 2.0 0.00 0.00 0.00 89 1017.4
20260901081525 74 214 0.0 2.0 0.00 0.00 0.00 88 1017.3
20260901080030 75 216 2.0 5.0 0.00 0.00 0.00 88 1017.2
20260901074524 75 230 2.0 5.0 0.00 0.00 0.00 87 1017.2
20260901073023 75 215 3.0 6.0 0.00 0.00 0.00 87 1017.0
20260901071523 75 240 2.0 7.0 0.00 0.00 0.00 87 1017.1
20260901070022 75 233 0.0 5.0 0.00 0.00 0.00 87 1017.0
20260901064524 76 272 2.0 10.0 0.00 0.00 0.00 87 1017.0
20260901063021 76 229 1.0 6.0 0.00 0.00 0.00 87 1017.1
20260901061520 75 242 3.0 7.0 0.00 0.00 0.00 88 1017.1
20260901060022 76 259 0.0 6.0 0.00 0.00 0.00 87 1017.2
20260901054520 76 228 2.0 8.0 0.00 0.00 0.00 88 1017.2
20260901053019 76 224 1.0 6.0 0.00 0.00 0.00 88 1017.2
20260901051518 76 210 2.0 9.0 0.00 0.00 0.00 88 1017.1
20260901050017 76 221 4.0 10.0 0.00 0.00 0.00 89 1017.1
20260901044515 75 191 5.0 9.0 0.00 0.00 0.00 90 1017.0
20260901043012 75 202 5.0 9.0 0.00 0.00 0.00 91 1017.3
20260901041507 74 205 3.0 6.0 0.00 0.00 0.00 91 1017.6
20260901040005 74 172 3.0 5.0 0.00 0.00 0.00 90 1017.8
20260901034504 75 167 3.0 5.0 0.00 0.00 0.00 90 1017.8
20260901033007 74 170 2.0 5.0 0.00 0.00 0.00 90 1017.9
20260901031504 74 155 1.0 3.0 0.00 0.00 0.00 91 1018.0